Rabat-Sale, Morocco

2:03 AM WET on February 10, 2016 (GMT +0000)
Sale

Weather History for GMME - September, 2012

Change the Weather History Date:

Sunday, September 9, 2012

  Actual Average (WUND) Record (WUND)
Temperature  
Mean Temperature 69 °F -  
Max Temperature 79 °F 76 °F - (-1)
Min Temperature 59 °F 60 °F - (-1)
Cooling Degree Days 4    
Growing Degree Days 19 (Base 50)    
Moisture  
Dew Point 62 °F    
Average Humidity 78    
Maximum Humidity 94    
Minimum Humidity 46    
Precipitation  
Precipitation 0.00 in 0.02 in - ()
Sea Level Pressure  
Sea Level Pressure 30.10 in    
Wind  
Wind Speed 3 mph ()    
Max Wind Speed 13 mph    
Max Gust Speed -    
Visibility 4.1 miles    
Events      
Averages and records for this station are not official NWS values.
T = Trace of Precipitation, MM = Missing Value Source: Averaged Metar Reports

Daily Weather History Graph

Daily Weather History Graph

Search for Another Location

Airport or City:

Trip Planner

Search our weather history database for the weather conditions in past years. The results will help you decide how hot, cold, wet, or windy it might be!

Date:

Astronomy

Sep. 09, 2012 Rise Set
Actual Time 7:06 AM WEST 7:41 PM WEST
Civil Twilight 6:41 AM WEST 8:06 PM WEST
Nautical Twilight 6:11 AM WEST 8:36 PM WEST
Astronomical Twilight 5:41 AM WEST 9:06 PM WEST
Moon 12:36 AM WEST (9/9) 3:04 PM WEST (9/9)
Length of Visible Light 13h 25m
Length of Day
12h 35m
Last Quarter, 41% of the Moon is Illuminated
Sep 9
Last Quarter
Sep 16
New
Sep 22
First Quarter
Sep 30
Full
Oct 8
Last Quarter

Hourly Weather History & Observations

Time (WEST) Temp. Dew Point Humidity Pressure Visibility Wind Dir Wind Speed Gust Speed Precip Events Conditions
12:00 AM 64.4 °F 60.8 °F 88% 30.15 in 3.7 mi Calm Calm - N/A   Mostly Cloudy
12:30 AM 64.4 °F 60.8 °F 88% 30.15 in 3.7 mi Calm Calm - N/A   Mostly Cloudy
1:00 AM 63 °F 60 °F 86% 30.16 in 4 mi Calm Calm - -   Mostly Cloudy
1:00 AM 62.6 °F 60.8 °F 94% 30.15 in 3.7 mi Calm Calm - N/A   Mostly Cloudy
2:00 AM 62.6 °F 60.8 °F 94% 30.12 in 3.1 mi Calm Calm - N/A   Mostly Cloudy
2:30 AM 62.6 °F 60.8 °F 94% 30.12 in 3.1 mi Calm Calm - N/A   Mostly Cloudy
3:00 AM 62.6 °F 60.8 °F 94% 30.12 in 3.1 mi Calm Calm - N/A   Mostly Cloudy
3:30 AM 60.8 °F 59.0 °F 94% 30.12 in 3.1 mi Calm Calm - N/A   Mostly Cloudy
4:00 AM 59 °F 57 °F 92% 30.13 in 3 mi Calm Calm - -   Mostly Cloudy
4:00 AM 59.0 °F 57.2 °F 94% 30.12 in 3.1 mi Calm Calm - N/A   Mostly Cloudy
4:30 AM 62.6 °F 60.8 °F 94% 30.09 in 3.1 mi SSE 3.5 mph - N/A   Mostly Cloudy
5:30 AM 62.6 °F 60.8 °F 94% 30.09 in 3.1 mi Calm Calm - N/A   Mostly Cloudy
6:00 AM 62.6 °F 60.8 °F 94% 30.09 in 3.1 mi SE 4.6 mph - N/A   Scattered Clouds
6:30 AM 60.8 °F 59.0 °F 94% 30.09 in 3.1 mi SE 4.6 mph - N/A   Scattered Clouds
7:00 AM 61 °F 59 °F 92% 30.12 in 3 mi SE 3.5 mph - -   Partly Cloudy
7:00 AM 60.8 °F 59.0 °F 94% 30.09 in 3.1 mi SE 3.5 mph - N/A   Scattered Clouds
7:30 AM 60.8 °F 59.0 °F 94% 30.12 in 3.1 mi Calm Calm - N/A   Scattered Clouds
8:00 AM 62.6 °F 60.8 °F 94% 30.12 in 1.9 mi Calm Calm - N/A   Partly Cloudy
8:08 AM 64.4 °F 62.6 °F 94% 30.12 in 1.9 mi Calm Calm - N/A   Partly Cloudy
8:17 AM 64.4 °F 62.6 °F 94% 30.12 in 1.2 mi Calm Calm - N/A   Partly Cloudy
8:30 AM 66.2 °F 64.4 °F 94% 30.12 in 1.2 mi Calm Calm - N/A   Partly Cloudy
8:58 AM 69.8 °F 62.6 °F 78% 30.12 in 3.7 mi Calm Calm - N/A   Scattered Clouds
9:00 AM 69.8 °F 62.6 °F 78% 30.12 in 3.7 mi Calm Calm - N/A   Scattered Clouds
9:30 AM 71.6 °F 60.8 °F 69% 30.12 in 3.7 mi Variable 1.2 mph - N/A   Scattered Clouds
10:00 AM 75 °F 60 °F 51% 30.13 in 4 mi Calm Calm - -   Scattered Clouds
10:00 AM 75.2 °F 60.8 °F 61% 30.12 in 3.7 mi Calm Calm - N/A   Scattered Clouds
10:30 AM 75.2 °F 60.8 °F 61% 30.12 in 3.7 mi Variable 3.5 mph - N/A   Scattered Clouds
11:00 AM 77.0 °F 60.8 °F 57% 30.12 in 3.7 mi WNW 4.6 mph - N/A   Scattered Clouds
11:30 AM 77.0 °F 60.8 °F 57% 30.12 in 3.7 mi NW 6.9 mph - N/A   Scattered Clouds
12:00 PM 78.8 °F 60.8 °F 54% 30.12 in 5.0 mi NNW 8.1 mph - N/A   Scattered Clouds
12:30 PM 78.8 °F 60.8 °F 54% 30.09 in 5.0 mi NNW 11.5 mph - N/A   Scattered Clouds
1:00 PM 78 °F 61 °F 46% 30.10 in 5 mi NW 11.5 mph - -   Scattered Clouds
1:00 PM 78.8 °F 60.8 °F 54% 30.09 in 5.0 mi NW 11.5 mph - N/A   Scattered Clouds
1:30 PM 78.8 °F 60.8 °F 54% 30.09 in 5.0 mi NNW 11.5 mph - N/A   Partly Cloudy
2:00 PM 77.0 °F 60.8 °F 57% 30.09 in 5.0 mi NW 11.5 mph - N/A   Scattered Clouds
2:30 PM 77.0 °F 62.6 °F 61% 30.09 in 5.0 mi NW 12.7 mph - N/A   Scattered Clouds
3:00 PM 77.0 °F 62.6 °F 61% 30.06 in 5.0 mi NW 11.5 mph - N/A   Scattered Clouds
3:30 PM 77.0 °F 64.4 °F 65% 30.06 in 5.0 mi NNW 11.5 mph - N/A   Scattered Clouds
4:00 PM 77 °F 64 °F 54% 30.06 in 5 mi NNW 12.7 mph - -   Scattered Clouds
4:00 PM 77.0 °F 64.4 °F 65% 30.06 in 5.0 mi NNW 12.7 mph - N/A   Scattered Clouds
4:30 PM 77.0 °F 64.4 °F 65% 30.06 in 5.0 mi NNW 12.7 mph - N/A   Scattered Clouds
5:00 PM 77.0 °F 64.4 °F 65% 30.06 in 5.0 mi NNW 12.7 mph - N/A   Scattered Clouds
5:30 PM 75.2 °F 64.4 °F 69% 30.04 in 5.0 mi NNW 11.5 mph - N/A   Scattered Clouds
6:00 PM 75.2 °F 64.4 °F 69% 30.06 in 5.0 mi NNW 11.5 mph - N/A   Scattered Clouds
6:30 PM 75.2 °F 62.6 °F 65% 30.06 in 5.0 mi NNW 10.4 mph - N/A   Scattered Clouds
7:00 PM 74 °F 65 °F 67% 30.07 in 5 mi NNW 9.2 mph - -   Partly Cloudy
7:00 PM 73.4 °F 66.2 °F 78% 30.06 in 5.0 mi NNW 9.2 mph - N/A   Scattered Clouds
7:30 PM 73.4 °F 64.4 °F 73% 30.06 in 5.0 mi NNW 6.9 mph - N/A   Scattered Clouds
8:00 PM 71.6 °F 64.4 °F 78% 30.06 in 5.0 mi NNW 8.1 mph - N/A   Scattered Clouds
8:30 PM 71.6 °F 64.4 °F 78% 30.06 in 5.0 mi NNW 5.8 mph - N/A   Scattered Clouds
9:00 PM 69.8 °F 66.2 °F 88% 30.09 in 5.0 mi North 3.5 mph - N/A   Scattered Clouds
9:30 PM 68.0 °F 64.4 °F 88% 30.09 in 5.0 mi Calm Calm - N/A   Scattered Clouds
10:00 PM 67 °F 64 °F 85% 30.11 in 5 mi Calm Calm - -   Partly Cloudy
10:00 PM 66.2 °F 64.4 °F 94% 30.09 in 5.0 mi Calm Calm - N/A   Scattered Clouds
10:30 PM 64.4 °F 60.8 °F 88% 30.09 in 5.0 mi Calm Calm - N/A   Scattered Clouds
11:00 PM 64.4 °F 62.6 °F 94% 30.09 in 5.0 mi Calm Calm - N/A   Scattered Clouds
11:30 PM 64.4 °F 62.6 °F 94% 30.09 in 5.0 mi Calm Calm - N/A   Scattered Clouds